Temperature
21 21 20 20 20 19 19 19 18 18 18 18 17 17 17 17 17 17 17 17 17 17 16 16 16 16 16 16 16 16 16 16 16 16 15 15 15 15 15 15 15 14 14
21 21 20 20 19 19 19 18 18 18 18 17 17 17 17 17 17 17 17 16 16 16 16 16 16 16 16 16 16 16 16 16 16 16 15 15 15 15 15 15 15 14 14
21 20 20 20 19 19 19 18 18 18 18 17 17 17 17 17 17 17 16 16 16 16 16 16 16 16 16 16 15 15 15 15 15 15 15 15 15 15 15 15 15 14 14
21 20 20 19 19 19 19 19 18 18 17 17 17 17 17 17 16 16 16 16 16 16 16 16 16 16 15 15 15 15 15 15 15 15 15 15 15 15 15 14 14 14 14
21 20 20 19 19 19 19 18 18 18 17 17 17 17 17 17 16 16 16 16 16 16 16 16 16 16 15 15 15 15 15 15 15 15 15 15 15 15 15 14 14 14 14
21 20 20 19 19 19 18 18 18 18 17 17 17 17 17 17 16 16 16 16 16 16 16 16 16 15 15 15 15 15 15 15 15 15 15 15 15 15 15 14 14 14 14
21 20 19 19 19 18 18 18 18 17 17 17 17 17 17 16 16 16 16 16 16 16 16 16 15 15 15 15 15 15 14 14 14 14 14 14 14 14 14 14 14 14 13
21 20 19 19 19 18 18 18 17 17 17 17 17 17 17 16 16 16 16 16 16 15 15 15 15 15 15 15 15 14 14 14 14 14 14 14 14 14 14 14 14 13 13
20 20 19 19 18 18 18 18 17 17 17 17 17 16 16 16 16 16 16 16 15 15 15 15 15 15 15 15 15 14 14 14 14 14 14 14 14 14 14 14 14 13 13
20 20 19 19 18 18 18 17 17 17 17 17 16 16 16 16 16 15 15 15 15 15 15 15 15 15 15 14 14 14 14 14 14 13 13 13 13 13 13 13 13 13 13
20 19 19 18 18 18 18 17 17 17 17 17 16 16 16 16 15 15 15 15 15 15 15 15 15 14 14 14 14 14 13 13 13 13 13 13 13 13 13 13 13 12 12
20 19 19 18 18 18 17 17 17 17 17 16 16 16 15 15 15 15 15 15 15 15 15 14 14 14 14 14 14 13 13 13 13 13 13 13 13 12 12 12 12 12 12
19 19 18 18 17 17 17 17 17 17 17 16 16 16 15 15 15 15 15 15 15 15 14 14 14 14 14 13 13 13 13 13 13 12 12 12 12 12 12 12 12 12 11
19 19 18 18 17 17 17 17 17 17 16 16 16 16 15 15 15 15 15 15 14 14 14 14 14 14 13 13 13 13 13 13 12 12 12 12 12 12 12 12 11 11 11
19 18 18 17 17 17 16 16 16 16 16 16 16 16 15 15 15 15 15 14 14 14 14 14 14 14 13 13 13 13 12 12 12 12 12 12 12 12 12 11 11 11 11
19 18 18 17 17 16 16 16 16 16 16 16 16 15 15 15 15 15 14 14 14 14 14 13 13 13 13 13 13 12 12 12 12 12 12 12 12 12 11 11 11 11 10
18 18 18 17 17 16 16 16 16 16 16 16 15 15 15 15 15 14 14 14 14 14 13 13 13 13 13 13 12 12 12 12 12 12 12 12 11 11 11 11 11 11 10
18 18 17 17 16 16 16 15 15 15 15 15 15 15 15 15 14 14 14 14 13 13 13 13 13 13 13 12 12 12 12 11 11 11 11 11 11 11 11 11 11 10 10
18 17 17 17 16 16 15 15 15 15 15 15 15 15 15 14 14 14 13 13 13 13 13 13 13 12 12 12 12 12 11 11 11 11 11 11 11 11 11 10 10 10 10
17 17 16 16 16 15 15 15 15 15 15 15 14 14 14 14 14 13 13 13 13 13 12 12 12 12 12 12 12 11 11 11 11 11 11 11 11 11 10 10 10 10 10
16 16 16 15 15 15 15 14 14 14 14 14 14 14 13 13 13 13 13 13 12 12 12 12 12 12 12 12 11 11 11 11 11 11 10 10 10 10 10 10 10 10 9
15 15 15 15 14 14 14 14 14 14 14 13 13 13 13 13 13 13 12 12 12 12 12 12 12 11 11 11 11 11 11 11 10 10 10 10 10 10 10 10 10 9 9
15 15 14 14 14 14 14 13 13 13 13 13 13 12 12 12 12 12 12 12 12 12 11 11 11 11 11 11 11 11 11 10 10 10 10 10 10 10 9 9 9 9 9
14 14 14 14 14 13 13 13 13 13 13 12 12 12 12 12 12 12 12 12 11 11 11 11 11 11 11 11 11 10 10 10 10 10 10 9 9 9 9 9 9 9 8
14 14 14 14 13 13 13 13 13 12 12 12 12 12 11 11 11 11 11 11 11 11 11 11 11 10 10 11 10 10 10 10 10 10 9 9 9 9 9 9 8 8 8
14 14 13 13 13 13 13 12 12 12 12 12 11 11 11 11 11 11 11 11 10 10 10 10 10 10 10 10 10 10 10 10 10 9 9 9 9 9 8 8 8 8 7
Wind_Speed
5 5 6 6 4 4 5 6 5 4 4 3 2 2 2 1 1 2 4 3 3 3 4 2 2 3 3 2 2 2 2 1 1 2 2 1 2 3 2 2 3 5 7
5 5 5 5 5 4 4 5 5 4 4 3 3 2 2 2 2 2 2 2 1 2 3 3 2 2 3 2 2 2 1 0 0 1 1 1 2 2 2 2 2 3 5
5 6 5 4 5 5 4 5 5 5 4 4 3 2 2 2 2 2 1 2 2 3 4 2 3 2 2 2 2 2 1 0 2 1 1 1 1 0 1 1 2 2 2
5 5 5 5 4 4 4 4 5 5 4 4 3 3 2 2 2 2 2 1 2 3 3 2 2 2 2 2 2 2 1 1 1 1 1 1 2 1 0 2 1 2 3
6 6 5 5 4 4 3 3 4 5 4 4 3 2 2 2 2 2 3 2 2 3 3 2 2 1 1 1 1 1 1 1 1 0 1 1 1 1 2 0 1 1 1
6 6 6 5 4 4 4 3 4 4 4 4 4 3 2 2 3 2 2 2 2 2 2 2 1 1 1 1 1 2 1 1 1 1 1 1 1 0 1 1 1 1 1
6 6 6 6 5 5 5 4 4 4 3 4 4 3 3 3 3 2 2 1 2 2 1 2 1 1 1 1 2 1 1 1 1 1 0 1 1 1 1 1 0 0 1
5 6 6 6 5 6 5 5 4 4 4 3 3 4 4 3 2 2 2 2 1 1 2 2 2 2 2 2 2 1 1 1 1 1 1 1 1 1 1 1 1 0 1
5 5 5 6 6 6 6 5 5 5 4 3 3 3 4 3 3 2 2 2 1 2 2 2 2 2 2 2 2 1 1 2 1 1 1 1 1 1 1 1 1 2 0
5 5 5 5 6 6 5 5 5 5 5 4 3 3 3 3 3 2 2 2 2 2 2 2 2 2 2 2 2 2 1 2 1 1 2 1 0 1 1 1 1 1 2
5 5 5 5 5 5 5 5 4 5 4 4 3 4 3 3 3 2 2 2 2 2 2 2 2 2 2 2 2 2 1 2 1 1 2 1 1 1 1 1 1 1 1
4 5 5 5 4 5 5 5 4 4 4 3 3 4 4 3 3 3 3 2 2 2 2 2 2 2 2 2 3 2 2 1 1 1 2 1 1 1 0 0 0 0 1
4 5 5 4 4 3 4 4 4 4 4 4 4 4 4 3 3 3 3 2 2 2 2 2 2 1 2 2 2 2 2 2 1 1 2 2 2 1 1 1 0 0 0
4 4 4 4 3 3 2 3 4 4 4 4 4 4 4 3 3 2 2 2 2 1 2 2 2 2 1 1 1 2 2 1 1 1 1 1 2 2 1 1 1 1 1
4 4 4 3 3 3 2 2 3 3 4 4 3 3 3 3 3 3 2 1 1 1 1 2 1 2 1 1 1 1 2 2 2 1 1 1 2 2 2 1 1 1 1
3 4 4 4 3 3 3 2 3 3 3 4 4 3 3 3 3 3 3 2 1 1 1 1 2 1 1 3 3 1 1 1 2 2 2 2 2 4 4 4 3 2 2
3 3 3 3 3 3 3 2 1 2 3 3 4 4 3 3 3 3 3 3 3 2 1 2 2 2 2 3 2 1 1 1 1 1 1 1 2 4 2 2 2 1 1
3 2 2 3 2 2 2 2 1 1 3 3 4 4 4 3 3 2 3 3 3 3 2 2 2 2 2 3 2 1 2 1 1 1 1 2 2 3 3 1 0 0 1
2 1 1 2 2 1 2 2 2 1 2 2 3 4 4 4 3 3 3 3 3 3 3 3 3 3 3 3 3 1 1 1 1 1 1 1 2 3 3 2 1 1 1
2 2 1 1 1 1 1 1 1 1 1 1 2 3 4 4 4 4 3 2 2 3 3 3 3 4 4 4 4 3 1 2 2 1 1 1 2 3 3 2 2 2 2
2 2 2 1 0 0 1 2 1 1 1 1 1 2 3 4 4 4 3 3 3 3 3 3 3 3 4 5 5 5 2 2 2 2 2 2 3 3 3 3 3 4 2
2 1 1 1 1 1 0 0 1 0 0 0 1 2 2 3 3 3 3 3 3 3 3 3 3 2 3 4 4 5 4 3 2 2 2 3 3 3 4 3 4 3 1
1 0 1 1 1 0 0 1 1 0 1 1 2 3 3 3 3 4 4 3 3 3 3 3 3 3 2 3 5 5 5 4 2 2 2 2 3 2 3 5 5 3 2
1 1 2 2 2 1 1 2 1 1 2 2 2 2 3 3 2 2 3 3 3 4 3 4 4 3 2 2 2 3 3 4 3 2 2 2 3 3 3 2 2 2 2
2 2 3 3 3 2 2 2 1 2 2 3 3 2 2 2 2 2 2 3 4 5 4 4 4 4 4 4 5 4 3 3 3 2 1 1 1 2 2 2 2 2 2
3 3 3 3 3 3 3 2 2 2 3 2 2 2 2 2 2 2 1 1 2 4 4 4 4 3 4 4 5 5 3 3 4 3 3 3 3 3 3 3 2 3 3
Wind_Direction
144 143 147 142 145 147 135 130 137 142 132 126 119 114 109 92 75 85 80 66 47 65 87 91 84 87 95 96 88 85 79 63 90 78 54 41 76 99 86 65 71 73 77
137 134 140 149 154 142 137 142 143 137 127 130 137 140 138 127 106 80 74 82 55 76 92 103 94 94 103 100 99 98 85 329 17 121 115 71 24 20 104 100 86 87 83
145 144 147 148 148 147 149 148 141 136 129 128 127 118 85 92 94 99 97 69 55 69 77 80 111 132 134 142 123 112 109 350 332 34 96 115 153 337 12 106 112 102 91
139 137 141 145 155 154 149 142 141 132 125 131 133 138 134 132 134 130 131 128 103 90 100 103 103 126 127 137 161 147 137 123 313 337 12 85 127 134 57 354 54 100 99
143 141 143 144 146 139 136 137 132 125 130 136 130 139 134 137 123 115 113 112 97 92 90 85 73 102 125 140 142 125 128 145 185 257 5 8 11 50 116 185 343 29 69
146 145 145 141 140 129 126 122 131 132 135 139 135 143 131 123 113 103 108 111 105 95 86 87 83 120 140 142 155 138 133 105 80 33 42 83 94 94 103 161 179 158 209
151 147 146 146 140 136 137 138 125 126 131 138 139 140 128 120 123 122 118 110 105 102 100 68 47 78 94 99 105 119 140 116 99 84 45 33 63 97 96 111 167 161 212
139 138 139 139 141 143 142 143 143 142 138 138 146 141 131 125 128 130 117 121 116 123 117 105 83 65 71 85 81 93 105 110 120 111 98 62 6 43 79 112 118 63 348
134 132 134 141 146 147 149 155 156 153 150 154 154 143 136 131 129 134 125 124 136 130 117 119 118 103 80 85 92 83 94 77 68 105 100 80 15 45 49 60 115 134 135
144 140 142 143 145 146 150 152 159 160 156 164 172 151 140 140 137 133 134 138 135 118 119 119 120 118 100 83 90 84 98 103 79 95 91 91 59 60 50 17 11 72 138
144 143 137 138 140 143 149 157 161 154 156 165 165 144 140 139 139 144 133 123 124 132 122 128 130 139 141 123 116 116 108 120 137 117 116 131 114 99 47 38 34 38 81
126 128 131 135 139 148 155 160 158 150 149 155 146 143 149 144 149 156 144 154 156 160 150 140 132 138 136 142 136 138 133 134 147 149 138 169 128 115 99 74 73 77 102
121 118 118 126 135 150 155 148 149 144 143 143 147 144 143 149 166 162 166 161 151 153 147 133 134 126 121 132 142 144 153 154 161 156 155 157 135 143 120 142 90 60 81
127 125 122 127 131 138 144 149 149 144 139 139 139 141 153 157 162 147 144 143 147 155 156 149 143 136 126 121 141 144 148 149 149 149 105 120 137 143 149 150 150 117 81
136 135 137 138 140 145 153 145 147 147 146 145 146 158 161 148 147 143 141 147 156 164 150 143 139 132 142 122 101 149 166 181 173 148 126 103 101 110 129 126 125 128 154
146 145 151 151 162 168 176 176 176 167 157 156 157 147 159 152 155 163 165 170 180 182 156 154 153 142 120 108 98 66 289 209 158 169 171 157 128 105 82 76 88 115 153
139 148 157 155 169 172 171 174 193 166 149 155 161 159 162 164 173 180 173 176 177 169 178 193 154 135 138 137 130 97 297 250 174 169 147 143 120 115 103 70 57 26 356
134 151 161 150 157 163 154 161 186 193 169 169 171 166 168 169 178 185 184 190 181 180 196 199 159 149 159 154 154 191 264 245 195 162 147 137 143 131 126 142 123 189 346
97 103 117 129 142 157 157 163 181 208 189 176 182 170 167 171 178 190 208 214 198 196 200 197 180 173 177 174 169 155 258 247 227 187 152 158 150 127 117 127 143 135 302
83 80 68 73 131 160 145 166 184 201 227 209 193 176 171 171 186 205 215 220 216 208 198 200 197 179 178 186 184 183 220 238 241 229 199 171 157 155 150 159 177 201 229
85 85 79 51 29 35 168 189 192 216 236 228 229 190 184 192 195 205 205 207 213 202 199 206 209 192 179 185 188 189 209 225 234 225 214 198 188 202 213 222 218 226 234
84 92 98 75 40 15 357 264 242 239 112 179 222 233 219 213 206 190 201 207 197 198 208 210 213 204 182 179 195 196 218 240 235 237 218 195 192 219 236 237 239 232 258
141 183 165 160 182 183 226 272 266 214 161 203 231 224 239 233 204 187 194 200 191 196 208 208 212 212 192 188 192 201 220 242 246 258 258 236 229 237 238 236 233 219 199
195 209 207 206 214 202 220 252 255 214 197 228 240 219 225 230 225 204 191 191 196 199 209 209 210 206 194 185 183 204 220 230 245 261 261 239 225 225 224 228 225 214 206
213 219 217 217 220 208 208 239 251 259 236 233 217 214 218 213 220 215 198 196 202 194 200 207 201 196 203 213 198 193 206 205 207 207 208 195 190 205 209 212 213 210 206
226 225 220 220 228 220 210 215 225 246 250 245 211 200 207 210 197 192 221 233 207 193 200 205 201 205 207 202 192 194 203 200 190 175 193 208 205 208 214 214 217 217 213
Height
1526 1528 1530 1532 1533 1535 1537 1538 1540 1541 1542 1543 1544 1545 1546 1547 1547 1548 1549 1549 1550 1550 1551 1551 1552 1553 1553 1554 1554 1555 1555 1556 1557 1557 1557 1558 1558 1558 1558 1558 1557 1557 1557
1526 1528 1530 1531 1533 1535 1537 1538 1539 1541 1542 1543 1544 1545 1546 1547 1548 1548 1548 1549 1550 1550 1551 1551 1551 1552 1553 1553 1554 1555 1555 1556 1556 1557 1557 1558 1559 1558 1559 1558 1558 1558 1557
1525 1527 1529 1531 1533 1535 1536 1538 1539 1540 1541 1542 1544 1545 1546 1547 1547 1548 1548 1549 1549 1550 1550 1551 1551 1552 1552 1553 1554 1554 1555 1556 1556 1557 1557 1557 1558 1558 1559 1559 1558 1558 1558
1524 1526 1528 1530 1532 1534 1535 1537 1538 1539 1540 1542 1543 1544 1545 1546 1547 1548 1548 1548 1549 1549 1550 1550 1551 1551 1552 1553 1553 1554 1555 1555 1555 1556 1556 1557 1557 1558 1558 1559 1559 1558 1558
1524 1526 1528 1530 1531 1533 1534 1536 1537 1539 1540 1541 1542 1543 1544 1546 1547 1547 1548 1548 1548 1549 1549 1550 1550 1551 1551 1552 1552 1553 1554 1554 1555 1555 1555 1556 1556 1557 1557 1558 1559 1558 1558
1523 1525 1527 1529 1530 1532 1533 1535 1536 1538 1539 1540 1541 1543 1544 1545 1546 1547 1547 1547 1548 1548 1548 1549 1549 1550 1551 1551 1552 1552 1553 1553 1553 1554 1555 1555 1555 1556 1556 1557 1557 1557 1557
1522 1524 1526 1528 1529 1531 1532 1534 1536 1537 1538 1539 1540 1542 1543 1544 1545 1545 1546 1547 1547 1547 1547 1548 1548 1549 1549 1550 1551 1551 1552 1552 1552 1553 1553 1554 1554 1555 1555 1555 1556 1556 1556
1521 1523 1525 1526 1528 1530 1531 1533 1534 1536 1537 1538 1540 1541 1542 1543 1544 1544 1545 1545 1546 1546 1546 1547 1547 1548 1549 1549 1550 1550 1550 1551 1551 1551 1552 1552 1553 1554 1554 1554 1555 1554 1555
1520 1522 1524 1525 1527 1529 1530 1532 1533 1535 1536 1537 1539 1540 1540 1541 1542 1543 1544 1545 1545 1545 1545 1546 1546 1547 1548 1548 1549 1549 1549 1550 1550 1550 1551 1551 1552 1552 1552 1553 1553 1554 1553
1519 1521 1523 1524 1526 1528 1529 1531 1532 1533 1534 1536 1537 1538 1539 1540 1541 1542 1543 1544 1544 1545 1545 1545 1545 1546 1547 1547 1548 1548 1548 1548 1549 1549 1549 1550 1550 1551 1551 1551 1552 1552 1552
1518 1520 1522 1523 1525 1527 1528 1530 1531 1532 1533 1534 1536 1537 1538 1539 1540 1541 1542 1543 1543 1544 1544 1545 1545 1545 1545 1546 1546 1546 1547 1547 1547 1548 1548 1548 1549 1549 1549 1550 1550 1550 1550
1517 1519 1521 1522 1524 1526 1527 1528 1530 1531 1532 1533 1534 1535 1536 1538 1539 1540 1540 1541 1542 1543 1543 1544 1544 1544 1544 1545 1545 1545 1545 1546 1546 1546 1547 1547 1548 1548 1548 1548 1548 1548 1549
1517 1519 1520 1522 1523 1525 1526 1527 1528 1529 1530 1531 1532 1533 1535 1536 1537 1538 1539 1540 1541 1542 1542 1542 1542 1543 1543 1543 1543 1544 1544 1544 1544 1545 1545 1545 1546 1546 1546 1546 1546 1547 1547
1517 1518 1520 1521 1522 1524 1525 1526 1527 1528 1529 1530 1531 1532 1533 1534 1536 1537 1538 1539 1539 1540 1540 1541 1541 1541 1542 1542 1542 1542 1542 1543 1543 1543 1543 1544 1544 1544 1544 1545 1545 1545 1544
1516 1518 1519 1520 1521 1522 1523 1524 1525 1526 1527 1528 1529 1530 1531 1532 1534 1535 1536 1537 1537 1538 1539 1539 1539 1540 1540 1540 1540 1540 1541 1541 1541 1541 1542 1542 1542 1543 1543 1543 1543 1542 1542
1516 1517 1518 1519 1520 1521 1522 1523 1524 1525 1526 1526 1527 1528 1529 1530 1531 1532 1533 1534 1535 1536 1536 1537 1537 1537 1538 1538 1538 1539 1539 1539 1539 1539 1540 1540 1540 1541 1541 1541 1541 1541 1541
1514 1516 1517 1518 1519 1520 1521 1521 1522 1523 1524 1524 1525 1526 1527 1528 1529 1530 1531 1531 1532 1533 1534 1534 1535 1535 1535 1536 1536 1537 1537 1537 1537 1537 1538 1538 1538 1538 1538 1538 1539 1539 1539
1513 1514 1516 1517 1518 1519 1519 1520 1521 1521 1521 1522 1523 1523 1524 1525 1526 1527 1528 1529 1530 1530 1531 1531 1532 1532 1533 1533 1533 1534 1534 1534 1534 1535 1535 1535 1535 1535 1535 1536 1536 1536 1536
1511 1513 1514 1515 1516 1517 1517 1518 1518 1519 1519 1519 1520 1521 1521 1522 1523 1524 1525 1526 1527 1527 1528 1528 1529 1529 1530 1530 1531 1531 1531 1531 1532 1532 1532 1533 1533 1533 1533 1533 1533 1532 1532
1510 1511 1512 1513 1514 1515 1515 1515 1516 1516 1517 1517 1517 1518 1518 1519 1519 1520 1521 1522 1523 1524 1525 1525 1526 1526 1527 1527 1527 1528 1528 1528 1528 1529 1529 1530 1530 1530 1530 1530 1530 1529 1529
1508 1510 1510 1511 1512 1513 1513 1513 1513 1513 1514 1514 1514 1514 1515 1515 1516 1517 1518 1519 1519 1520 1521 1522 1522 1523 1523 1524 1524 1524 1525 1525 1525 1525 1525 1526 1527 1527 1527 1527 1526 1526 1526
1507 1508 1509 1509 1510 1510 1511 1510 1510 1511 1511 1510 1511 1511 1511 1512 1512 1513 1514 1515 1515 1516 1517 1518 1519 1519 1520 1520 1521 1521 1521 1521 1521 1521 1522 1522 1523 1523 1523 1523 1522 1522 1522
1506 1506 1507 1507 1508 1508 1508 1508 1508 1508 1507 1507 1507 1507 1507 1508 1508 1509 1509 1510 1511 1512 1512 1513 1514 1515 1516 1516 1517 1517 1517 1517 1518 1518 1518 1518 1518 1518 1518 1519 1519 1518 1518
1503 1504 1504 1504 1504 1505 1505 1505 1505 1505 1504 1504 1504 1504 1504 1504 1504 1505 1505 1506 1506 1507 1508 1509 1510 1511 1511 1512 1512 1512 1513 1513 1513 1513 1513 1514 1514 1514 1514 1514 1514 1514 1514
1501 1501 1501 1501 1501 1501 1501 1501 1501 1501 1501 1501 1501 1500 1500 1500 1500 1501 1501 1502 1502 1503 1504 1504 1505 1506 1507 1507 1508 1508 1508 1508 1508 1509 1509 1509 1509 1509 1509 1509 1509 1510 1510
1497 1498 1498 1498 1498 1498 1497 1498 1498 1498 1498 1498 1497 1497 1497 1497 1497 1497 1498 1498 1499 1500 1501 1501 1502 1502 1503 1504 1504 1504 1504 1504 1505 1505 1504 1504 1504 1505 1505 1505 1505 1505 1505